Location: Caualo
(45.5667°N, 10.8667°E)
Time: 23:10:44
(UTC+00:00)

In-Cosmos 22 Rocket - Pass Details

Date: 04 October 2020
Orbit: 790 x 889 km, 81.2° (Epoch: 27 October)

Event Time Altitude Azimuth Distance (km) Brightness Sun altitude
Rises 18:51:46 0° 4° (N) 3,326 7.5 -21.9°
Reaches altitude 10° 18:55:36 10° 31° (NNE) 2,376 6.4 -22.5°
Enters shadow 18:55:59 11° 35° (NE) 2,313 6.3 -22.6°
